This is the latest recevied weather packets stored in our database for station/object K9TLD. If no packets are shown the sender has not sent any weather packets the latest 10 day(s).
| Time | Temp. | Humidity | Pressure | Rain* | Wind** | Luminosity | Snow |
|---|---|---|---|---|---|---|---|
| 1778278334 | 15.56° C | 34% | 1006.8 hPa | 0 mm | - | 254 W/m² | - |
| 1778278030 | 15.56° C | 35% | 1006.9 hPa | 0 mm | - | 183 W/m² | - |
| 1778277727 | 15° C | 37% | 1007.1 hPa | 0 mm | - | 170 W/m² | - |
| 1778277423 | 15° C | 36% | 1007.3 hPa | 0 mm | - | 263 W/m² | - |
| 1778277120 | 15.56° C | 38% | 1007.1 hPa | 0 mm | - | 271 W/m² | - |
| 1778276817 | 16.11° C | 34% | 1007.1 hPa | 0 mm | - | 296 W/m² | - |
| 1778276514 | 16.11° C | 35% | 1006.9 hPa | 0 mm | - | 324 W/m² | - |
| 1778276211 | 15.56° C | 38% | 1007.2 hPa | 0 mm | - | 400 W/m² | - |
| 1778275907 | 15° C | 37% | 1007.2 hPa | 0 mm | - | 397 W/m² | - |
| 1778275604 | 15.56° C | 36% | 1007.3 hPa | 0 mm | - | 303 W/m² | - |
| 1778275300 | 15° C | 38% | 1007.2 hPa | 0 mm | - | 414 W/m² | - |
| 1778274995 | 15° C | 37% | 1007.4 hPa | 0 mm | - | 448 W/m² | - |
| 1778274692 | 16.67° C | 36% | 1007.4 hPa | 0 mm | - | 121 W/m² | - |
| 1778274389 | 16.67° C | 36% | 1007.3 hPa | 0 mm | - | 272 W/m² | - |
| 1778274087 | 15.56° C | 37% | 1007.4 hPa | 0 mm | - | 506 W/m² | - |
| 1778273783 | 15.56° C | 38% | 1007.5 hPa | 0 mm | - | 290 W/m² | - |
| 1778273480 | 15.56° C | 39% | 1007.5 hPa | 0 mm | - | 562 W/m² | - |
| 1778273176 | 15.56° C | 39% | 1007.4 hPa | 0 mm | - | 520 W/m² | - |
| 1778272872 | 14.44° C | 40% | 1007.6 hPa | 0 mm | - | 554 W/m² | - |
| 1778272568 | 13.89° C | 40% | 1007.8 hPa | 0 mm | - | 162 W/m² | - |
| 1778272264 | 15° C | 40% | 1008 hPa | 0 mm | - | 134 W/m² | - |
| 1778271961 | 15° C | 38% | 1007.8 hPa | 0 mm | - | 278 W/m² | - |
| 1778271658 | 15.56° C | 37% | 1008 hPa | 0 mm | - | 204 W/m² | - |
| 1778271355 | 15.56° C | 38% | 1008.1 hPa | 0 mm | - | 328 W/m² | - |
| 1778271051 | 16.67° C | 37% | 1008 hPa | 0 mm | - | 679 W/m² | - |
* Rain latest hour (hover to see other rain measurements)
** Current wind speed in m/s (hover to see current wind gust speed)